Time,TemperatureF,DewpointF,PressureIn,WindDirection,WindDirectionDegrees,WindSpeedMPH,WindSpeedGustMPH,Humidity,HourlyPrecipIn,Conditions,Clouds,dailyrainin,SoftwareType,DateUTC
2013-07-13 00:01:00,79.1,64.0,29.99,NE,45,0.0,0.0,60,0.00,,SKC,0.00,VWS V13.01,2013-07-13 05:01:00,
2013-07-13 00:06:00,79.1,64.0,29.99,ESE,116,0.0,5.0,60,0.00,,SKC,0.00,VWS V13.01,2013-07-13 05:06:00,
2013-07-13 00:11:00,79.1,64.0,29.99,SSE,147,0.0,0.0,60,0.00,,SKC,0.00,VWS V13.01,2013-07-13 05:11:00,
2013-07-13 00:16:00,79.0,63.9,29.99,South,171,0.0,6.0,60,0.00,,SKC,0.00,VWS V13.01,2013-07-13 05:16:00,
2013-07-13 00:21:00,79.0,63.9,29.99,ESE,108,0.0,11.0,60,0.00,,SKC,0.00,VWS V13.01,2013-07-13 05:21:00,
2013-07-13 00:26:00,79.0,63.9,29.99,South,184,0.0,6.0,60,0.00,,SKC,0.00,VWS V13.01,2013-07-13 05:26:00,
2013-07-13 00:31:00,79.0,63.5,29.99,East,96,4.0,8.0,59,0.00,,SKC,0.00,VWS V13.01,2013-07-13 05:31:00,
2013-07-13 00:36:00,79.0,63.5,29.99,SSE,147,5.0,5.0,59,0.00,,SKC,0.00,VWS V13.01,2013-07-13 05:36:00,
2013-07-13 00:41:00,79.0,63.5,29.99,South,189,2.0,10.0,59,0.00,,SKC,0.00,VWS V13.01,2013-07-13 05:41:00,
2013-07-13 00:47:00,78.9,63.4,29.99,South,191,3.0,10.0,59,0.00,,SKC,0.00,VWS V13.01,2013-07-13 05:47:00,
2013-07-13 00:52:00,78.9,63.4,29.99,East,100,0.0,7.0,59,0.00,,SKC,0.00,VWS V13.01,2013-07-13 05:52:00,
2013-07-13 00:58:00,78.8,63.3,30.00,SE,143,0.0,12.0,59,0.00,,SKC,0.00,VWS V13.01,2013-07-13 05:58:00,
2013-07-13 01:03:00,78.7,63.2,30.00,ESE,106,0.0,7.0,59,0.00,,SKC,0.00,VWS V13.01,2013-07-13 06:03:00,
2013-07-13 01:08:00,78.6,63.1,30.00,SE,139,0.0,5.0,59,0.00,,SKC,0.00,VWS V13.01,2013-07-13 06:08:00,
2013-07-13 01:14:00,78.5,63.0,30.00,SSW,200,0.0,6.0,59,0.00,,SKC,0.00,VWS V13.01,2013-07-13 06:14:00,
2013-07-13 01:19:00,78.4,62.9,30.00,ESE,115,0.0,5.0,59,0.00,,SKC,0.00,VWS V13.01,2013-07-13 06:19:00,
2013-07-13 01:24:00,78.4,62.9,30.00,SE,124,0.0,6.0,59,0.00,,SKC,0.00,VWS V13.01,2013-07-13 06:24:00,
2013-07-13 01:29:00,78.3,62.8,30.00,SSE,149,0.0,9.0,59,0.00,,SKC,0.00,VWS V13.01,2013-07-13 06:29:00,
2013-07-13 01:34:00,78.2,62.7,30.00,SE,129,0.0,4.0,59,0.00,,SKC,0.00,VWS V13.01,2013-07-13 06:34:00,
2013-07-13 01:39:00,78.1,62.6,30.00,ESE,120,0.0,7.0,59,0.00,,SKC,0.00,VWS V13.01,2013-07-13 06:39:00,
2013-07-13 01:44:00,78.1,62.6,30.01,SE,134,0.0,6.0,59,0.00,,SKC,0.00,VWS V13.01,2013-07-13 06:44:00,
2013-07-13 01:50:00,78.0,63.0,30.01,ESE,106,0.0,7.0,60,0.00,,SKC,0.00,VWS V13.01,2013-07-13 06:50:00,
2013-07-13 01:55:00,77.9,62.4,30.00,SSE,155,0.0,7.0,59,0.00,,SKC,0.00,VWS V13.01,2013-07-13 06:55:00,
2013-07-13 02:00:00,77.9,62.9,30.00,SSE,155,0.0,1.0,60,0.00,,SKC,0.00,VWS V13.01,2013-07-13 07:00:00,
2013-07-13 02:06:00,77.8,62.8,30.01,ENE,69,0.0,1.0,60,0.00,,SKC,0.00,VWS V13.01,2013-07-13 07:06:00,
2013-07-13 02:11:00,77.7,62.7,30.01,East,98,4.0,5.0,60,0.00,,SKC,0.00,VWS V13.01,2013-07-13 07:11:00,
2013-07-13 02:16:00,77.6,62.6,30.01,East,82,0.0,3.0,60,0.00,,SKC,0.00,VWS V13.01,2013-07-13 07:16:00,
2013-07-13 02:21:00,77.6,62.6,30.01,ESE,115,0.0,6.0,60,0.00,,SKC,0.00,VWS V13.01,2013-07-13 07:21:00,
2013-07-13 02:26:00,77.5,62.5,30.01,ESE,123,1.0,6.0,60,0.00,,SKC,0.00,VWS V13.01,2013-07-13 07:26:00,
2013-07-13 02:32:00,77.5,62.5,30.00,SE,143,0.0,12.0,60,0.00,,SKC,0.00,VWS V13.01,2013-07-13 07:32:00,
2013-07-13 02:37:00,77.4,62.4,30.01,SSW,203,0.0,4.0,60,0.00,,SKC,0.00,VWS V13.01,2013-07-13 07:37:00,
2013-07-13 02:42:00,77.4,62.4,30.00,South,187,0.0,7.0,60,0.00,,SKC,0.00,VWS V13.01,2013-07-13 07:42:00,
2013-07-13 02:47:00,77.3,62.3,30.01,SE,133,0.0,4.0,60,0.00,,SKC,0.00,VWS V13.01,2013-07-13 07:47:00,
2013-07-13 02:52:00,77.2,62.2,30.01,SSW,199,0.0,5.0,60,0.00,,SKC,0.00,VWS V13.01,2013-07-13 07:52:00,
2013-07-13 02:57:00,77.1,62.2,30.01,SSW,196,4.0,7.0,60,0.00,,SKC,0.00,VWS V13.01,2013-07-13 07:57:00,
2013-07-13 03:02:00,77.1,62.6,30.00,South,182,2.0,13.0,61,0.00,,SKC,0.00,VWS V13.01,2013-07-13 08:02:00,
2013-07-13 03:07:00,77.0,62.5,30.00,SE,144,2.0,6.0,61,0.00,,SKC,0.00,VWS V13.01,2013-07-13 08:07:00,
2013-07-13 03:12:00,76.9,62.9,30.00,ESE,107,1.0,4.0,62,0.00,,SKC,0.00,VWS V13.01,2013-07-13 08:12:00,
2013-07-13 03:18:00,76.7,62.7,30.00,SSW,208,0.0,7.0,62,0.00,,SKC,0.00,VWS V13.01,2013-07-13 08:18:00,
2013-07-13 03:24:00,76.6,62.6,30.00,South,183,1.0,6.0,62,0.00,,SKC,0.00,VWS V13.01,2013-07-13 08:24:00,
2013-07-13 03:29:00,76.5,62.5,30.00,ESE,116,0.0,11.0,62,0.00,,SKC,0.00,VWS V13.01,2013-07-13 08:29:00,
2013-07-13 03:34:00,76.4,62.9,30.00,South,185,0.0,8.0,63,0.00,,SKC,0.00,VWS V13.01,2013-07-13 08:34:00,
2013-07-13 03:40:00,76.4,62.9,30.00,ESE,114,0.0,1.0,63,0.00,,SKC,0.00,VWS V13.01,2013-07-13 08:40:00,
2013-07-13 03:45:00,76.3,62.8,30.00,SE,128,0.0,1.0,63,0.00,,SKC,0.00,VWS V13.01,2013-07-13 08:45:00,
2013-07-13 03:50:00,76.2,62.7,30.00,South,183,3.0,9.0,63,0.00,,SKC,0.00,VWS V13.01,2013-07-13 08:50:00,
2013-07-13 03:56:00,76.2,62.2,30.00,SE,134,2.0,5.0,62,0.00,,SKC,0.00,VWS V13.01,2013-07-13 08:56:00,
2013-07-13 04:02:00,76.2,62.2,30.00,South,186,0.0,8.0,62,0.00,,SKC,0.00,VWS V13.01,2013-07-13 09:02:00,
2013-07-13 04:07:00,76.0,62.5,29.99,SE,131,0.0,8.0,63,0.00,,SKC,0.00,VWS V13.01,2013-07-13 09:07:00,
2013-07-13 04:12:00,75.9,62.4,30.00,South,185,0.0,2.0,63,0.00,,SKC,0.00,VWS V13.01,2013-07-13 09:12:00,
2013-07-13 04:17:00,75.8,62.3,29.99,SE,129,0.0,0.0,63,0.00,,SKC,0.00,VWS V13.01,2013-07-13 09:17:00,
2013-07-13 04:23:00,75.8,62.3,30.00,SW,226,0.0,4.0,63,0.00,,SKC,0.00,VWS V13.01,2013-07-13 09:23:00,
2013-07-13 04:28:00,75.7,62.2,30.00,SSE,157,0.0,4.0,63,0.00,,SKC,0.00,VWS V13.01,2013-07-13 09:28:00,
2013-07-13 04:33:00,75.6,62.1,30.00,South,185,0.0,4.0,63,0.00,,SKC,0.00,VWS V13.01,2013-07-13 09:33:00,
2013-07-13 04:38:00,75.5,62.0,29.99,ENE,64,0.0,2.0,63,0.00,,SKC,0.00,VWS V13.01,2013-07-13 09:38:00,
2013-07-13 04:44:00,75.4,61.9,29.99,SW,215,7.0,9.0,63,0.00,,SKC,0.00,VWS V13.01,2013-07-13 09:44:00,
2013-07-13 04:50:00,75.3,62.3,30.00,SE,138,0.0,9.0,64,0.00,,SKC,0.00,VWS V13.01,2013-07-13 09:50:00,
2013-07-13 04:55:00,75.2,62.2,30.00,ESE,116,4.0,4.0,64,0.00,,SKC,0.00,VWS V13.01,2013-07-13 09:55:00,
2013-07-13 05:00:00,75.2,62.2,30.00,ENE,77,0.0,7.0,64,0.00,,SKC,0.00,VWS V13.01,2013-07-13 10:00:00,
2013-07-13 05:05:00,75.1,62.5,30.00,South,170,0.0,6.0,65,0.00,,SKC,0.00,VWS V13.01,2013-07-13 10:05:00,
2013-07-13 05:10:00,75.0,62.5,30.00,SSE,158,2.0,2.0,65,0.00,,SKC,0.00,VWS V13.01,2013-07-13 10:10:00,
2013-07-13 05:15:00,74.9,62.3,30.00,SE,140,0.0,1.0,65,0.00,,SKC,0.00,VWS V13.01,2013-07-13 10:15:00,
2013-07-13 05:20:00,74.8,62.7,30.00,SE,142,5.0,5.0,66,0.00,,SKC,0.00,VWS V13.01,2013-07-13 10:20:00,
2013-07-13 05:25:00,74.7,62.6,30.00,SE,127,1.0,8.0,66,0.00,,SKC,0.00,VWS V13.01,2013-07-13 10:25:00,
2013-07-13 05:31:00,74.6,62.5,30.00,ESE,106,0.0,4.0,66,0.00,,SKC,0.00,VWS V13.01,2013-07-13 10:31:00,
2013-07-13 05:36:00,74.5,62.4,30.00,South,175,0.0,2.0,66,0.00,,SKC,0.00,VWS V13.01,2013-07-13 10:36:00,
2013-07-13 05:41:00,74.4,62.3,30.00,SE,131,0.0,0.0,66,0.00,,SKC,0.00,VWS V13.01,2013-07-13 10:41:00,
2013-07-13 05:46:00,74.4,62.7,30.00,SSE,147,0.0,4.0,67,0.00,,SKC,0.00,VWS V13.01,2013-07-13 10:46:00,
2013-07-13 05:51:00,74.3,62.6,30.00,South,187,4.0,8.0,67,0.00,,SKC,0.00,VWS V13.01,2013-07-13 10:51:00,
2013-07-13 05:56:00,74.3,62.6,30.00,SE,139,1.0,4.0,67,0.00,,SKC,0.00,VWS V13.01,2013-07-13 10:56:00,
2013-07-13 06:01:00,74.3,63.5,30.00,SE,129,5.0,6.0,69,0.00,,SKC,0.00,VWS V13.01,2013-07-13 11:01:00,
2013-07-13 06:07:00,73.9,63.9,30.01,SSE,163,5.0,7.0,71,0.00,,SKC,0.00,VWS V13.01,2013-07-13 11:07:00,
2013-07-13 06:12:00,73.4,63.8,30.01,South,171,0.0,0.0,72,0.00,,SKC,0.00,VWS V13.01,2013-07-13 11:12:00,
2013-07-13 06:17:00,73.0,63.5,30.01,South,180,0.0,0.0,72,0.00,,SKC,0.00,VWS V13.01,2013-07-13 11:17:00,
2013-07-13 06:23:00,72.6,63.1,30.01,SE,133,0.0,0.0,72,0.00,,SKC,0.00,VWS V13.01,2013-07-13 11:23:00,
2013-07-13 06:28:00,72.5,63.4,30.00,South,181,0.0,1.0,73,0.00,,SKC,0.00,VWS V13.01,2013-07-13 11:28:00,
2013-07-13 06:33:00,72.4,62.9,30.01,ESE,109,0.0,6.0,72,0.00,,SKC,0.00,VWS V13.01,2013-07-13 11:33:00,
2013-07-13 06:38:00,72.4,62.9,30.01,ESE,122,0.0,6.0,72,0.00,,SKC,0.00,VWS V13.01,2013-07-13 11:38:00,
2013-07-13 06:43:00,72.4,62.5,30.01,SSE,151,0.0,6.0,71,0.00,,SKC,0.00,VWS V13.01,2013-07-13 11:43:00,
2013-07-13 06:48:00,72.6,62.7,30.01,SE,138,0.0,6.0,71,0.00,,SKC,0.00,VWS V13.01,2013-07-13 11:48:00,
2013-07-13 06:53:00,72.8,62.5,30.00,SE,133,0.0,7.0,70,0.00,,SKC,0.00,VWS V13.01,2013-07-13 11:53:00,
2013-07-13 06:59:00,73.0,62.2,30.00,SE,146,0.0,1.0,69,0.00,,SKC,0.00,VWS V13.01,2013-07-13 11:59:00,
2013-07-13 07:04:00,73.1,62.3,30.00,SSE,153,5.0,5.0,69,0.00,,SKC,0.00,VWS V13.01,2013-07-13 12:04:00,
2013-07-13 07:09:00,73.2,62.4,30.00,SE,131,6.0,6.0,69,0.00,,SKC,0.00,VWS V13.01,2013-07-13 12:09:00,
2013-07-13 07:14:00,73.3,62.5,30.00,East,93,0.0,5.0,69,0.00,,SKC,0.00,VWS V13.01,2013-07-13 12:14:00,
2013-07-13 07:19:00,73.3,62.5,30.00,South,178,0.0,4.0,69,0.00,,SKC,0.00,VWS V13.01,2013-07-13 12:19:00,
2013-07-13 07:25:00,73.3,62.5,30.00,SSW,204,0.0,5.0,69,0.00,,SKC,0.00,VWS V13.01,2013-07-13 12:25:00,
2013-07-13 07:30:00,73.4,62.6,30.00,SE,136,4.0,4.0,69,0.00,,SKC,0.00,VWS V13.01,2013-07-13 12:30:00,
2013-07-13 07:35:00,73.5,62.7,30.00,ESE,121,0.0,1.0,69,0.00,,SKC,0.00,VWS V13.01,2013-07-13 12:35:00,
2013-07-13 07:40:00,73.5,62.7,30.00,South,172,0.0,0.0,69,0.00,,SKC,0.00,VWS V13.01,2013-07-13 12:40:00,
2013-07-13 07:45:00,73.7,62.9,30.00,SSE,164,0.0,2.0,69,0.00,,SKC,0.00,VWS V13.01,2013-07-13 12:45:00,
2013-07-13 07:50:00,73.8,63.0,30.00,ESE,112,0.0,6.0,69,0.00,,SKC,0.00,VWS V13.01,2013-07-13 12:50:00,
2013-07-13 07:56:00,73.9,62.7,30.00,East,91,1.0,11.0,68,0.00,,SKC,0.00,VWS V13.01,2013-07-13 12:56:00,
2013-07-13 08:01:00,73.9,62.7,30.00,South,190,4.0,9.0,68,0.00,,SKC,0.00,VWS V13.01,2013-07-13 13:01:00,
2013-07-13 08:06:00,74.0,63.2,30.01,SSW,193,0.0,8.0,69,0.00,,SKC,0.00,VWS V13.01,2013-07-13 13:06:00,
2013-07-13 08:11:00,74.0,62.8,30.01,SSE,165,0.0,6.0,68,0.00,,SKC,0.00,VWS V13.01,2013-07-13 13:11:00,
2013-07-13 08:16:00,74.1,63.3,30.01,East,92,0.0,1.0,69,0.00,,SKC,0.00,VWS V13.01,2013-07-13 13:16:00,
2013-07-13 08:22:00,74.2,63.0,30.01,SSE,156,0.0,8.0,68,0.00,,SKC,0.00,VWS V13.01,2013-07-13 13:22:00,
2013-07-13 08:28:00,74.2,63.0,30.01,SSW,203,0.0,5.0,68,0.00,,SKC,0.00,VWS V13.01,2013-07-13 13:28:00,
2013-07-13 08:33:00,74.2,63.4,30.01,SE,128,0.0,8.0,69,0.00,,SKC,0.00,VWS V13.01,2013-07-13 13:33:00,
2013-07-13 08:38:00,74.4,63.6,30.01,South,178,1.0,7.0,69,0.00,,SKC,0.00,VWS V13.01,2013-07-13 13:38:00,
2013-07-13 08:44:00,74.5,63.7,30.01,SE,143,0.0,7.0,69,0.00,,SKC,0.00,VWS V13.01,2013-07-13 13:44:00,
2013-07-13 08:49:00,74.6,63.8,30.01,ESE,123,0.0,5.0,69,0.00,,SKC,0.00,VWS V13.01,2013-07-13 13:49:00,
2013-07-13 08:55:00,74.7,63.9,30.01,SSE,162,0.0,2.0,69,0.00,,SKC,0.00,VWS V13.01,2013-07-13 13:55:00,
2013-07-13 09:01:00,74.8,64.0,30.02,SE,126,1.0,8.0,69,0.00,,SKC,0.00,VWS V13.01,2013-07-13 14:01:00,
2013-07-13 09:06:00,74.6,64.2,30.01,South,187,0.0,4.0,70,0.00,,SKC,0.00,VWS V13.01,2013-07-13 14:06:00,
2013-07-13 09:11:00,74.6,64.2,30.01,East,81,4.0,6.0,70,0.00,,SKC,0.00,VWS V13.01,2013-07-13 14:11:00,
2013-07-13 09:17:00,74.5,64.5,30.02,ESE,112,0.0,0.0,71,0.00,,SKC,0.00,VWS V13.01,2013-07-13 14:17:00,
2013-07-13 09:22:00,74.5,64.5,30.03,South,186,0.0,4.0,71,0.00,,SKC,0.00,VWS V13.01,2013-07-13 14:22:00,
2013-07-13 09:28:00,74.8,65.2,30.02,SE,125,1.0,2.0,72,0.00,,SKC,0.00,VWS V13.01,2013-07-13 14:28:00,
2013-07-13 09:33:00,74.8,64.8,30.02,SSE,152,1.0,9.0,71,0.00,,SKC,0.00,VWS V13.01,2013-07-13 14:33:00,
2013-07-13 09:39:00,74.9,64.9,30.02,ENE,74,4.0,7.0,71,0.00,,SKC,0.00,VWS V13.01,2013-07-13 14:39:00,
2013-07-13 09:44:00,75.1,65.1,30.02,SE,136,2.0,5.0,71,0.00,,SKC,0.00,VWS V13.01,2013-07-13 14:44:00,
2013-07-13 09:49:00,75.2,65.2,30.02,SE,144,0.0,7.0,71,0.00,,SKC,0.00,VWS V13.01,2013-07-13 14:49:00,
2013-07-13 09:54:00,75.3,65.3,30.01,SE,124,0.0,2.0,71,0.00,,SKC,0.00,VWS V13.01,2013-07-13 14:54:00,
2013-07-13 10:00:00,75.4,65.3,30.01,ESE,112,0.0,1.0,71,0.00,,SKC,0.00,VWS V13.01,2013-07-13 15:00:00,
2013-07-13 10:06:00,75.3,65.3,30.01,SE,132,7.0,7.0,71,0.00,,SKC,0.00,VWS V13.01,2013-07-13 15:06:00,
2013-07-13 10:11:00,75.1,65.1,30.01,SE,136,6.0,12.0,71,0.00,,SKC,0.00,VWS V13.01,2013-07-13 15:11:00,
2013-07-13 10:16:00,75.2,65.2,30.01,SSE,163,0.0,6.0,71,0.00,,SKC,0.00,VWS V13.01,2013-07-13 15:16:00,
2013-07-13 10:21:00,75.7,65.6,30.01,SE,139,0.0,4.0,71,0.00,,SKC,0.00,VWS V13.01,2013-07-13 15:21:00,
2013-07-13 10:27:00,76.5,66.4,30.01,South,173,0.0,0.0,71,0.00,,SKC,0.00,VWS V13.01,2013-07-13 15:27:00,
2013-07-13 10:32:00,77.0,65.6,30.01,SE,138,0.0,11.0,68,0.00,,SKC,0.00,VWS V13.01,2013-07-13 15:32:00,
2013-07-13 10:37:00,77.0,65.6,30.01,SSE,151,0.0,8.0,68,0.00,,SKC,0.00,VWS V13.01,2013-07-13 15:37:00,
2013-07-13 10:43:00,77.0,65.6,30.01,SE,144,8.0,9.0,68,0.00,,SKC,0.00,VWS V13.01,2013-07-13 15:43:00,
2013-07-13 10:48:00,76.8,65.9,30.01,ESE,122,0.0,0.0,69,0.00,,SKC,0.00,VWS V13.01,2013-07-13 15:48:00,
2013-07-13 10:53:00,76.9,66.0,30.01,South,179,0.0,2.0,69,0.00,,SKC,0.00,VWS V13.01,2013-07-13 15:53:00,
2013-07-13 10:58:00,77.0,65.6,30.01,SE,125,6.0,11.0,68,0.00,,SKC,0.00,VWS V13.01,2013-07-13 15:58:00,
2013-07-13 11:03:00,76.8,66.3,30.01,SE,140,0.0,5.0,70,0.00,,SKC,0.00,VWS V13.01,2013-07-13 16:03:00,
2013-07-13 11:08:00,77.0,66.1,30.01,SE,132,0.0,3.0,69,0.00,,SKC,0.00,VWS V13.01,2013-07-13 16:08:00,
2013-07-13 11:13:00,77.1,66.2,30.01,SE,131,8.0,8.0,69,0.00,,SKC,0.00,VWS V13.01,2013-07-13 16:13:00,
2013-07-13 11:19:00,77.3,66.3,30.01,SSE,152,0.0,6.0,69,0.00,,SKC,0.00,VWS V13.01,2013-07-13 16:19:00,
2013-07-13 11:24:00,77.4,66.4,30.00,SE,139,0.0,6.0,69,0.00,,SKC,0.00,VWS V13.01,2013-07-13 16:24:00,
2013-07-13 11:29:00,77.5,66.9,30.00,South,185,0.0,4.0,70,0.00,,SKC,0.00,VWS V13.01,2013-07-13 16:29:00,
2013-07-13 11:34:00,77.8,67.2,30.00,South,172,5.0,9.0,70,0.00,,SKC,0.00,VWS V13.01,2013-07-13 16:34:00,
2013-07-13 11:40:00,78.1,67.1,30.00,ENE,74,0.0,3.0,69,0.00,,SKC,0.00,VWS V13.01,2013-07-13 16:40:00,
2013-07-13 11:45:00,78.7,68.1,30.00,ESE,122,0.0,7.0,70,0.00,,SKC,0.00,VWS V13.01,2013-07-13 16:45:00,
2013-07-13 11:50:00,79.1,68.1,30.00,SSE,166,0.0,6.0,69,0.00,,SKC,0.00,VWS V13.01,2013-07-13 16:50:00,
2013-07-13 11:56:00,79.7,68.6,30.00,SSW,203,0.0,4.0,69,0.00,,SKC,0.00,VWS V13.01,2013-07-13 16:56:00,
2013-07-13 12:01:00,81.2,70.1,30.00,ESE,115,0.0,0.0,69,0.00,,SKC,0.00,VWS V13.01,2013-07-13 17:01:00,
2013-07-13 12:06:00,82.5,69.6,30.00,ENE,75,0.0,4.0,65,0.00,,SKC,0.00,VWS V13.01,2013-07-13 17:06:00,
2013-07-13 12:12:00,82.5,69.1,30.00,SE,137,0.0,6.0,64,0.00,,SKC,0.00,VWS V13.01,2013-07-13 17:12:00,
2013-07-13 12:17:00,82.4,69.9,30.00,SE,139,7.0,8.0,66,0.00,,SKC,0.00,VWS V13.01,2013-07-13 17:17:00,
2013-07-13 12:22:00,83.0,70.0,30.00,ESE,104,0.0,7.0,65,0.00,,SKC,0.00,VWS V13.01,2013-07-13 17:22:00,
2013-07-13 12:27:00,84.3,70.8,30.00,ENE,72,0.0,2.0,64,0.00,,SKC,0.00,VWS V13.01,2013-07-13 17:27:00,
2013-07-13 12:33:00,84.5,70.5,30.00,SE,137,0.0,4.0,63,0.00,,SKC,0.00,VWS V13.01,2013-07-13 17:33:00,
2013-07-13 12:38:00,85.5,71.5,30.00,SSE,161,0.0,1.0,63,0.00,,SKC,0.00,VWS V13.01,2013-07-13 17:38:00,
2013-07-13 12:43:00,86.4,70.9,30.00,South,186,0.0,7.0,60,0.00,,SKC,0.00,VWS V13.01,2013-07-13 17:43:00,
2013-07-13 12:48:00,86.6,71.1,30.00,ESE,123,0.0,14.0,60,0.00,,SKC,0.00,VWS V13.01,2013-07-13 17:48:00,
2013-07-13 12:54:00,86.6,71.6,30.00,ESE,121,0.0,11.0,61,0.00,,SKC,0.00,VWS V13.01,2013-07-13 17:54:00,
2013-07-13 13:00:00,86.2,71.7,30.00,ESE,109,4.0,8.0,62,0.00,,SKC,0.00,VWS V13.01,2013-07-13 18:00:00,
2013-07-13 13:05:00,86.6,71.6,30.00,South,185,0.0,5.0,61,0.00,,SKC,0.00,VWS V13.01,2013-07-13 18:05:00,
2013-07-13 13:10:00,86.9,71.8,30.00,SSW,201,2.0,6.0,61,0.00,,SKC,0.00,VWS V13.01,2013-07-13 18:10:00,
2013-07-13 13:15:00,87.2,72.1,30.00,ESE,108,1.0,6.0,61,0.00,,SKC,0.00,VWS V13.01,2013-07-13 18:15:00,
2013-07-13 13:21:00,87.4,71.3,30.00,SE,141,10.0,12.0,59,0.00,,SKC,0.00,VWS V13.01,2013-07-13 18:21:00,
2013-07-13 13:26:00,87.1,71.5,30.00,SSE,162,1.0,9.0,60,0.00,,SKC,0.00,VWS V13.01,2013-07-13 18:26:00,
2013-07-13 13:31:00,86.9,71.3,29.99,SE,140,1.0,14.0,60,0.00,,SKC,0.00,VWS V13.01,2013-07-13 18:31:00,
2013-07-13 13:36:00,86.9,71.3,29.99,ESE,114,6.0,14.0,60,0.00,,SKC,0.00,VWS V13.01,2013-07-13 18:36:00,
2013-07-13 13:41:00,86.6,71.1,29.99,SE,131,7.0,13.0,60,0.00,,SKC,0.00,VWS V13.01,2013-07-13 18:41:00,
2013-07-13 13:46:00,87.2,72.6,29.99,South,186,3.0,11.0,62,0.00,,SKC,0.00,VWS V13.01,2013-07-13 18:46:00,
2013-07-13 13:51:00,87.8,72.2,29.99,SSE,158,8.0,14.0,60,0.00,,SKC,0.00,VWS V13.01,2013-07-13 18:51:00,
2013-07-13 13:56:00,88.3,72.2,29.99,SE,145,5.0,15.0,59,0.00,,SKC,0.00,VWS V13.01,2013-07-13 18:56:00,
2013-07-13 14:02:00,89.1,72.4,29.99,South,180,10.0,15.0,58,0.00,,SKC,0.00,VWS V13.01,2013-07-13 19:02:00,
2013-07-13 14:07:00,88.8,72.6,29.99,SE,145,0.0,12.0,59,0.00,,SKC,0.00,VWS V13.01,2013-07-13 19:07:00,
2013-07-13 14:12:00,89.4,73.2,29.99,SSE,168,13.0,17.0,59,0.00,,SKC,0.00,VWS V13.01,2013-07-13 19:12:00,
2013-07-13 14:17:00,89.0,73.3,29.98,South,190,9.0,10.0,60,0.00,,SKC,0.00,VWS V13.01,2013-07-13 19:17:00,
2013-07-13 14:23:00,88.5,72.3,29.98,South,183,0.0,13.0,59,0.00,,SKC,0.00,VWS V13.01,2013-07-13 19:23:00,
2013-07-13 14:28:00,89.1,73.4,29.99,South,171,8.0,11.0,60,0.00,,SKC,0.00,VWS V13.01,2013-07-13 19:28:00,
2013-07-13 14:33:00,89.3,72.6,29.99,SE,142,0.0,7.0,58,0.00,,SKC,0.00,VWS V13.01,2013-07-13 19:33:00,
2013-07-13 14:38:00,89.2,73.5,29.98,SSW,199,0.0,4.0,60,0.00,,SKC,0.00,VWS V13.01,2013-07-13 19:38:00,
2013-07-13 14:43:00,89.8,74.6,29.98,ENE,68,1.0,5.0,61,0.00,,SKC,0.00,VWS V13.01,2013-07-13 19:43:00,
2013-07-13 14:48:00,91.2,73.3,29.98,South,178,1.0,13.0,56,0.00,,SKC,0.00,VWS V13.01,2013-07-13 19:48:00,
2013-07-13 14:53:00,91.0,73.7,29.98,ESE,108,0.0,7.0,57,0.00,,SKC,0.00,VWS V13.01,2013-07-13 19:53:00,
2013-07-13 14:58:00,91.0,73.1,29.98,ESE,120,0.0,11.0,56,0.00,,SKC,0.00,VWS V13.01,2013-07-13 19:58:00,
2013-07-13 15:03:00,91.5,73.6,29.98,East,87,4.0,8.0,56,0.00,,SKC,0.00,VWS V13.01,2013-07-13 20:03:00,
2013-07-13 15:08:00,91.7,73.2,29.98,East,97,8.0,13.0,55,0.00,,SKC,0.00,VWS V13.01,2013-07-13 20:08:00,
2013-07-13 15:14:00,91.5,74.7,29.98,ESE,114,5.0,7.0,58,0.00,,SKC,0.00,VWS V13.01,2013-07-13 20:14:00,
2013-07-13 15:19:00,91.6,74.2,29.98,ESE,102,0.0,6.0,57,0.00,,SKC,0.00,VWS V13.01,2013-07-13 20:19:00,
2013-07-13 15:24:00,91.9,74.5,29.98,South,170,0.0,11.0,57,0.00,,SKC,0.00,VWS V13.01,2013-07-13 20:24:00,
2013-07-13 15:29:00,91.2,73.8,29.98,East,85,8.0,8.0,57,0.00,,SKC,0.00,VWS V13.01,2013-07-13 20:29:00,
2013-07-13 15:34:00,90.7,73.9,29.98,SE,134,7.0,11.0,58,0.00,,SKC,0.00,VWS V13.01,2013-07-13 20:34:00,
2013-07-13 15:39:00,90.7,73.9,29.98,SE,128,5.0,11.0,58,0.00,,SKC,0.00,VWS V13.01,2013-07-13 20:39:00,
2013-07-13 15:44:00,91.0,74.2,29.97,SSE,149,7.0,10.0,58,0.00,,SKC,0.00,VWS V13.01,2013-07-13 20:44:00,
2013-07-13 15:49:00,90.9,74.1,29.97,ESE,104,4.0,7.0,58,0.00,,SKC,0.00,VWS V13.01,2013-07-13 20:49:00,
2013-07-13 15:54:00,90.9,74.1,29.97,SE,125,1.0,12.0,58,0.00,,SKC,0.00,VWS V13.01,2013-07-13 20:54:00,
2013-07-13 16:00:00,90.4,73.6,29.97,SSE,158,2.0,14.0,58,0.00,,SKC,0.00,VWS V13.01,2013-07-13 21:00:00,
2013-07-13 16:05:00,90.2,73.4,29.97,East,85,0.0,9.0,58,0.00,,SKC,0.00,VWS V13.01,2013-07-13 21:05:00,
2013-07-13 16:10:00,91.1,73.8,29.98,SSW,195,8.0,8.0,57,0.00,,SKC,0.00,VWS V13.01,2013-07-13 21:10:00,
2013-07-13 16:15:00,91.9,74.5,29.98,SE,129,0.0,3.0,57,0.00,,SKC,0.00,VWS V13.01,2013-07-13 21:15:00,
2013-07-13 16:21:00,92.5,73.4,29.98,East,81,4.0,11.0,54,0.00,,SKC,0.00,VWS V13.01,2013-07-13 21:21:00,
2013-07-13 16:26:00,91.3,72.9,29.98,ESE,118,0.0,12.0,55,0.00,,SKC,0.00,VWS V13.01,2013-07-13 21:26:00,
2013-07-13 16:31:00,90.2,73.4,29.98,ENE,75,0.0,5.0,58,0.00,,SKC,0.00,VWS V13.01,2013-07-13 21:31:00,
2013-07-13 16:37:00,90.7,74.4,29.98,South,169,0.0,6.0,59,0.00,,SKC,0.00,VWS V13.01,2013-07-13 21:37:00,
2013-07-13 16:42:00,90.7,74.4,29.98,SW,221,5.0,13.0,59,0.00,,SKC,0.00,VWS V13.01,2013-07-13 21:42:00,
2013-07-13 16:47:00,90.1,73.3,29.98,South,190,3.0,13.0,58,0.00,,SKC,0.00,VWS V13.01,2013-07-13 21:47:00,
2013-07-13 16:52:00,89.2,73.0,29.98,ESE,121,1.0,12.0,59,0.00,,SKC,0.00,VWS V13.01,2013-07-13 21:52:00,
2013-07-13 16:57:00,88.6,72.4,29.98,South,178,6.0,9.0,59,0.00,,SKC,0.00,VWS V13.01,2013-07-13 21:57:00,
2013-07-13 17:03:00,88.3,72.7,29.97,East,87,0.0,12.0,60,0.00,,SKC,0.00,VWS V13.01,2013-07-13 22:03:00,
2013-07-13 17:08:00,88.2,73.1,29.97,South,174,1.0,7.0,61,0.00,,SKC,0.00,VWS V13.01,2013-07-13 22:08:00,
2013-07-13 17:14:00,88.0,72.9,29.98,ESE,116,0.0,12.0,61,0.00,,SKC,0.00,VWS V13.01,2013-07-13 22:14:00,
2013-07-13 17:19:00,87.5,72.4,29.98,SE,146,11.0,12.0,61,0.00,,SKC,0.00,VWS V13.01,2013-07-13 22:19:00,
2013-07-13 17:24:00,87.1,72.5,29.98,ESE,116,11.0,14.0,62,0.00,,SKC,0.00,VWS V13.01,2013-07-13 22:24:00,
2013-07-13 17:29:00,86.8,72.7,29.98,SE,137,4.0,8.0,63,0.00,,SKC,0.00,VWS V13.01,2013-07-13 22:29:00,
2013-07-13 17:34:00,86.4,72.8,29.98,SE,141,7.0,13.0,64,0.00,,SKC,0.00,VWS V13.01,2013-07-13 22:34:00,
2013-07-13 17:39:00,86.1,73.0,29.98,East,94,6.0,7.0,65,0.00,,SKC,0.00,VWS V13.01,2013-07-13 22:39:00,
2013-07-13 17:44:00,86.1,73.0,29.98,East,97,0.0,4.0,65,0.00,,SKC,0.00,VWS V13.01,2013-07-13 22:44:00,
2013-07-13 17:49:00,86.3,73.6,29.98,East,100,6.0,11.0,66,0.00,,SKC,0.00,VWS V13.01,2013-07-13 22:49:00,
2013-07-13 17:54:00,85.9,72.8,29.98,ESE,112,0.0,8.0,65,0.00,,SKC,0.00,VWS V13.01,2013-07-13 22:54:00,
2013-07-13 17:59:00,85.6,72.9,29.98,ENE,69,2.0,12.0,66,0.00,,SKC,0.00,VWS V13.01,2013-07-13 22:59:00,
2013-07-13 18:04:00,85.6,73.4,29.98,SSE,158,0.0,8.0,67,0.00,,SKC,0.00,VWS V13.01,2013-07-13 23:04:00,
2013-07-13 18:10:00,85.5,73.3,29.98,South,174,4.0,9.0,67,0.00,,SKC,0.00,VWS V13.01,2013-07-13 23:10:00,
2013-07-13 18:15:00,85.5,73.3,29.97,SE,126,0.0,11.0,67,0.00,,SKC,0.00,VWS V13.01,2013-07-13 23:15:00,
2013-07-13 18:20:00,85.6,73.8,29.97,ESE,106,0.0,6.0,68,0.00,,SKC,0.00,VWS V13.01,2013-07-13 23:20:00,
2013-07-13 18:26:00,85.7,73.9,29.97,SW,222,0.0,6.0,68,0.00,,SKC,0.00,VWS V13.01,2013-07-13 23:26:00,
2013-07-13 18:31:00,86.1,73.9,29.97,South,177,0.0,10.0,67,0.00,,SKC,0.00,VWS V13.01,2013-07-13 23:31:00,
2013-07-13 18:36:00,86.3,74.5,29.97,SSE,148,6.0,8.0,68,0.00,,SKC,0.00,VWS V13.01,2013-07-13 23:36:00,
2013-07-13 18:41:00,86.4,74.6,29.97,SSE,157,0.0,6.0,68,0.00,,SKC,0.00,VWS V13.01,2013-07-13 23:41:00,
2013-07-13 18:47:00,86.3,74.1,29.96,ESE,102,0.0,7.0,67,0.00,,SKC,0.00,VWS V13.01,2013-07-13 23:47:00,
2013-07-13 18:52:00,86.3,74.1,29.96,SSW,212,4.0,5.0,67,0.00,,SKC,0.00,VWS V13.01,2013-07-13 23:52:00,
2013-07-13 18:57:00,86.4,74.2,29.96,ENE,65,3.0,6.0,67,0.00,,SKC,0.00,VWS V13.01,2013-07-13 23:57:00,
2013-07-13 19:02:00,86.6,74.3,29.96,SE,145,0.0,11.0,67,0.00,,SKC,0.00,VWS V13.01,2013-07-14 00:02:00,
2013-07-13 19:08:00,86.5,73.8,29.96,East,88,7.0,11.0,66,0.00,,SKC,0.00,VWS V13.01,2013-07-14 00:08:00,
2013-07-13 19:13:00,86.4,73.2,29.96,SE,135,15.0,15.0,65,0.00,,SKC,0.00,VWS V13.01,2013-07-14 00:13:00,
2013-07-13 19:18:00,86.4,73.7,29.97,SSE,163,0.0,11.0,66,0.00,,SKC,0.00,VWS V13.01,2013-07-14 00:18:00,
2013-07-13 19:23:00,86.3,74.1,29.97,SSE,160,0.0,5.0,67,0.00,,SKC,0.00,VWS V13.01,2013-07-14 00:23:00,
2013-07-13 19:28:00,86.1,73.9,29.97,SE,127,0.0,11.0,67,0.00,,SKC,0.00,VWS V13.01,2013-07-14 00:28:00,
2013-07-13 19:33:00,85.7,73.5,29.97,East,97,4.0,8.0,67,0.00,,SKC,0.00,VWS V13.01,2013-07-14 00:33:00,
2013-07-13 19:38:00,85.6,73.4,29.96,ESE,118,6.0,13.0,67,0.00,,SKC,0.00,VWS V13.01,2013-07-14 00:38:00,
2013-07-13 19:43:00,85.4,72.8,29.96,SSE,168,2.0,8.0,66,0.00,,SKC,0.00,VWS V13.01,2013-07-14 00:43:00,
2013-07-13 19:48:00,85.3,73.1,29.96,ESE,120,6.0,12.0,67,0.00,,SKC,0.00,VWS V13.01,2013-07-14 00:48:00,
2013-07-13 19:53:00,85.2,73.4,29.96,SE,139,5.0,8.0,68,0.00,,SKC,0.00,VWS V13.01,2013-07-14 00:53:00,
2013-07-13 19:58:00,85.2,73.4,29.97,South,178,4.0,5.0,68,0.00,,SKC,0.00,VWS V13.01,2013-07-14 00:58:00,
2013-07-13 20:03:00,85.0,73.3,29.97,ESE,104,9.0,9.0,68,0.00,,SKC,0.00,VWS V13.01,2013-07-14 01:03:00,
2013-07-13 20:08:00,84.7,73.4,29.97,East,82,0.0,2.0,69,0.00,,SKC,0.00,VWS V13.01,2013-07-14 01:08:00,
2013-07-13 20:13:00,84.4,73.6,29.97,ESE,123,12.0,12.0,70,0.00,,SKC,0.00,VWS V13.01,2013-07-14 01:13:00,
2013-07-13 20:18:00,84.1,73.7,29.97,ESE,108,8.0,10.0,71,0.00,,SKC,0.00,VWS V13.01,2013-07-14 01:18:00,
2013-07-13 20:23:00,83.9,73.5,29.98,East,95,0.0,6.0,71,0.00,,SKC,0.00,VWS V13.01,2013-07-14 01:23:00,
2013-07-13 20:28:00,83.7,73.3,29.97,SSE,153,13.0,15.0,71,0.00,,SKC,0.00,VWS V13.01,2013-07-14 01:28:00,
2013-07-13 20:33:00,83.5,73.1,29.98,SE,131,0.0,0.0,71,0.00,,SKC,0.00,VWS V13.01,2013-07-14 01:33:00,
2013-07-13 20:38:00,83.4,73.0,29.98,SE,133,2.0,13.0,71,0.00,,SKC,0.00,VWS V13.01,2013-07-14 01:38:00,
2013-07-13 20:43:00,83.1,72.7,29.98,ENE,77,1.0,10.0,71,0.00,,SKC,0.00,VWS V13.01,2013-07-14 01:43:00,
2013-07-13 20:48:00,82.9,72.9,29.98,SE,131,6.0,12.0,72,0.00,,SKC,0.00,VWS V13.01,2013-07-14 01:48:00,
2013-07-13 20:53:00,82.7,72.8,29.98,ESE,106,0.0,9.0,72,0.00,,SKC,0.00,VWS V13.01,2013-07-14 01:53:00,
2013-07-13 20:58:00,82.5,73.0,29.98,South,176,0.0,8.0,73,0.00,,SKC,0.00,VWS V13.01,2013-07-14 01:58:00,
2013-07-13 21:03:00,82.4,72.9,29.98,ENE,60,0.0,4.0,73,0.00,,SKC,0.00,VWS V13.01,2013-07-14 02:03:00,
2013-07-13 21:08:00,82.2,73.1,29.98,SSE,148,0.0,4.0,74,0.00,,SKC,0.00,VWS V13.01,2013-07-14 02:08:00,
2013-07-13 21:13:00,82.0,72.9,29.98,South,185,9.0,15.0,74,0.00,,SKC,0.00,VWS V13.01,2013-07-14 02:13:00,
2013-07-13 21:18:00,81.8,72.3,29.99,SE,124,6.0,13.0,73,0.00,,SKC,0.00,VWS V13.01,2013-07-14 02:18:00,
2013-07-13 21:23:00,81.5,71.6,29.99,East,86,6.0,6.0,72,0.00,,SKC,0.00,VWS V13.01,2013-07-14 02:23:00,
2013-07-13 21:28:00,81.3,71.0,29.99,East,96,7.0,9.0,71,0.00,,SKC,0.00,VWS V13.01,2013-07-14 02:28:00,
2013-07-13 21:33:00,81.2,70.5,29.99,East,80,0.0,8.0,70,0.00,,SKC,0.00,VWS V13.01,2013-07-14 02:33:00,
2013-07-13 21:38:00,81.1,70.4,29.99,SE,139,2.0,9.0,70,0.00,,SKC,0.00,VWS V13.01,2013-07-14 02:38:00,
2013-07-13 21:43:00,80.9,70.6,29.99,East,85,11.0,18.0,71,0.00,,SKC,0.00,VWS V13.01,2013-07-14 02:43:00,
2013-07-13 21:48:00,80.7,70.8,29.99,SE,130,1.0,11.0,72,0.00,,SKC,0.00,VWS V13.01,2013-07-14 02:48:00,
2013-07-13 21:53:00,80.5,71.1,29.99,East,95,2.0,5.0,73,0.00,,SKC,0.00,VWS V13.01,2013-07-14 02:53:00,
2013-07-13 21:59:00,80.2,70.4,30.00,ESE,118,8.0,12.0,72,0.00,,SKC,0.00,VWS V13.01,2013-07-14 02:59:00,
2013-07-13 22:04:00,80.0,70.2,30.00,East,95,2.0,13.0,72,0.00,,SKC,0.00,VWS V13.01,2013-07-14 03:04:00,
2013-07-13 22:09:00,79.9,69.7,30.00,ESE,121,4.0,13.0,71,0.00,,SKC,0.00,VWS V13.01,2013-07-14 03:09:00,
2013-07-13 22:14:00,79.8,69.6,30.00,SSE,148,0.0,9.0,71,0.00,,SKC,0.00,VWS V13.01,2013-07-14 03:14:00,
2013-07-13 22:19:00,79.7,69.1,30.01,ESE,109,8.0,12.0,70,0.00,,SKC,0.00,VWS V13.01,2013-07-14 03:19:00,
2013-07-13 22:24:00,79.7,69.1,30.01,SE,128,1.0,7.0,70,0.00,,SKC,0.00,VWS V13.01,2013-07-14 03:24:00,
2013-07-13 22:29:00,79.6,69.0,30.00,SE,143,0.0,5.0,70,0.00,,SKC,0.00,VWS V13.01,2013-07-14 03:29:00,
2013-07-13 22:34:00,79.5,68.4,30.00,SE,145,0.0,11.0,69,0.00,,SKC,0.00,VWS V13.01,2013-07-14 03:34:00,
2013-07-13 22:39:00,79.4,68.3,30.00,South,187,3.0,8.0,69,0.00,,SKC,0.00,VWS V13.01,2013-07-14 03:39:00,
2013-07-13 22:44:00,79.4,68.3,30.00,East,96,1.0,7.0,69,0.00,,SKC,0.00,VWS V13.01,2013-07-14 03:44:00,
2013-07-13 22:49:00,79.3,68.3,30.00,East,79,4.0,12.0,69,0.00,,SKC,0.00,VWS V13.01,2013-07-14 03:49:00,
2013-07-13 22:54:00,79.2,68.2,30.00,ENE,76,0.0,8.0,69,0.00,,SKC,0.00,VWS V13.01,2013-07-14 03:54:00,
2013-07-13 22:58:00,79.2,68.2,30.00,SE,127,2.0,7.0,69,0.00,,SKC,0.00,VWS V13.01,2013-07-14 03:58:00,
2013-07-13 23:01:00,79.1,68.1,30.00,SE,128,0.0,2.0,69,0.00,,SKC,0.00,VWS V13.01,2013-07-14 04:01:00,
2013-07-13 23:02:00,79.1,68.1,30.00,SSE,162,4.0,7.0,69,0.00,,SKC,0.00,VWS V13.01,2013-07-14 04:02:00,
2013-07-13 23:03:00,79.1,68.1,30.00,East,87,0.0,13.0,69,0.00,,SKC,0.00,VWS V13.01,2013-07-14 04:03:00,
2013-07-13 23:08:00,78.9,67.9,30.01,SE,138,0.0,11.0,69,0.00,,SKC,0.00,VWS V13.01,2013-07-14 04:08:00,
2013-07-13 23:13:00,78.8,67.8,30.01,SSE,149,0.0,8.0,69,0.00,,SKC,0.00,VWS V13.01,2013-07-14 04:13:00,
2013-07-13 23:18:00,78.7,67.7,30.01,SE,139,7.0,12.0,69,0.00,,SKC,0.00,VWS V13.01,2013-07-14 04:18:00,
2013-07-13 23:21:00,78.6,67.6,30.01,ESE,122,12.0,12.0,69,0.00,,SKC,0.00,VWS V13.01,2013-07-14 04:21:00,
2013-07-13 23:26:00,78.5,67.5,30.01,ESE,105,7.0,16.0,69,0.00,,SKC,0.00,VWS V13.01,2013-07-14 04:26:00,
2013-07-13 23:31:00,78.4,67.4,30.01,SSE,149,4.0,13.0,69,0.00,,SKC,0.00,VWS V13.01,2013-07-14 04:31:00,
2013-07-13 23:36:00,78.3,67.7,30.01,SE,128,0.0,6.0,70,0.00,,SKC,0.00,VWS V13.01,2013-07-14 04:36:00,
2013-07-13 23:41:00,78.1,67.9,30.02,East,94,6.0,12.0,71,0.00,,SKC,0.00,VWS V13.01,2013-07-14 04:41:00,
2013-07-13 23:46:00,77.8,67.7,30.02,ESE,106,12.0,18.0,71,0.00,,SKC,0.00,VWS V13.01,2013-07-14 04:46:00,
2013-07-13 23:51:00,77.6,67.5,30.02,SSE,158,1.0,9.0,71,0.00,,SKC,0.00,VWS V13.01,2013-07-14 04:51:00,
2013-07-13 23:56:00,77.4,67.3,30.02,SE,128,9.0,11.0,71,0.00,,SKC,0.00,VWS V13.01,2013-07-14 04:56:00,